Location: Azalea Creek
(37.1280°N, 119.2623°W)
Time: 08:49:40
(UTC+00:00)

STARLINK-21 - Pass Details

Date: 17 February 2020
Orbit: 529 x 530 km, 53.0° (Epoch: 04 April)

Event Time Altitude Azimuth Distance (km) Brightness Sun altitude
Rises 03:25:06 0° 235° (SW) 2,655 8.0 -22.0°
Reaches altitude 10° 03:27:19 10° 239° (WSW) 1,770 7.0 -22.5°
Maximum altitude 03:31:18 61° 320° (NW) 605 3.9 -23.2°
Enters shadow 03:31:37 58° 346° (NNW) 621 3.8 -23.3°
